Hourly Data Report for September 11, 2016

All times are specified in Local Standard Time (LST). Add 1 hour to adjust for Daylight Saving Time where and when it is observed.

CHARLOTTETOWN A
PRINCE EDWARD ISLAND

46°17'21.000" N
63°07'09.000" W
48.50 m
8300301
71706
YYG

Download Data

Hourly Data (September 2016)
Hourly Data Report for September 11, 2016
Temp Definition
°C
Dew Point Temp Definition
°C
Rel Hum Definition
%
Wind Dir Definition
10's deg

Wind Spd Definition
km/h
Visibility Definition
km
Stn Press Definition
kPa
Hmdx Definition


Wind Chill Definition


Weather Definition


TIME
00:00 Legend Double Dagger 14.9 13.8 93 14 15 24.1 101.37     LegendNANA
01:00 Legend Double Dagger 15.0 14.2 95 15 13 24.1 101.34     LegendNANA
02:00 Legend Double Dagger 16.8 15.7 93 16 20 24.1 101.30     Mostly Cloudy
03:00 Legend Double Dagger 17.0 15.5 91 16 17 24.1 101.26     LegendNANA
04:00 Legend Double Dagger 17.1 15.8 92 17 23 24.1 101.21     Rain Showers
05:00 Legend Double Dagger 17.2 15.7 91 16 26 24.1 101.13     Mostly Cloudy
06:00 Legend Double Dagger 17.7 15.7 88 16 32 24.1 101.01     LegendNANA
07:00 Legend Double Dagger 17.7 15.7 88 16 30 24.1 100.99     Rain Showers
08:00 Legend Double Dagger 18.3 16.1 87 16 35 24.1 100.88     Rain Showers
09:00 Legend Double Dagger 19.0 16.6 86 16 32 24.1 100.80     LegendNANA
10:00 Legend Double Dagger 19.5 17.5 88 16 35 24.1 100.68     LegendNANA
11:00 Legend Double Dagger 21.5 18.7 84 17 31 24.1 100.56 28   Cloudy
12:00 Legend Double Dagger 21.6 19.0 85 17 33 24.1 100.40 28   LegendNANA
13:00 Legend Double Dagger 22.4 19.6 84 17 41 24.1 100.25 30   LegendNANA
14:00 Legend Double Dagger 24.7 20.5 77 19 40 24.1 100.16 33   Mostly Cloudy
15:00 Legend Double Dagger 24.7 19.0 70 20 28 24.1 100.12 31   LegendNANA
16:00 Legend Double Dagger 25.1 20.0 73 20 26 24.1 100.05 33   LegendNANA
17:00 Legend Double Dagger 25.4 19.4 69 20 22 24.1 99.91 32   Mostly Cloudy
18:00 Legend Double Dagger 22.6 19.8 84 24 29 19.3 99.95 30   Thunderstorms,Rain Showers
19:00 Legend Double Dagger 19.9 18.8 93 25 28 12.9 100.01     Rain Showers
20:00 Legend Double Dagger 19.5 17.7 89 26 23 19.3 100.13     Mostly Cloudy
21:00 Legend Double Dagger 18.2 15.1 82 26 23 24.1 100.20     LegendNANA
22:00 Legend Double Dagger 16.6 10.1 65 28 22 24.1 100.30     LegendNANA
23:00 Legend Double Dagger 15.4 9.2 66 27 21 24.1 100.39     Mainly Clear

Notes on Data Quality.

Legend

  • E = Estimated
  • M = Missing
  • NA = Not Available
  • ‡ = Partner data that is not subject to review by the National Climate Archives
Date modified: